Hourly Data Report for December 09, 2011

HALIFAX STANFIELD INT'L A
NOVA SCOTIA

44°52'48.060" N
63°30'00.050" W
145.40 m
8202250
71395
YHZ

Download Data

Hourly Data (December 2011)
Hourly Data Report for December 9, 2011
TIME
LST
Temp Definition
°C
Dew Point Definition
°C
Rel Hum Definition
%
Precip. Amount Definition
mm

Wind Dir Definition
10's deg

Wind Spd Definition
km/h
Visibility Definition
km
Stn Press Definition
kPa
Hmdx Definition


Wind Chill Definition


Weather Definition


00:00 -0.5 -7.1 61   29 26 24.1 100.20   -7 Mainly Clear
01:00 -0.9 -6.7 65   27 15 24.1 100.26   -6 Mostly Cloudy
02:00 -1.5 -6.2 70   28 17 24.1 100.37   -7 Mostly Cloudy
03:00 -1.9 -6.2 72   29 15 24.1 100.45   -7 Mainly Clear
04:00 -2.1 -6.2 73   28 9 24.1 100.54   -6 Clear
05:00 -2.3 -6.4 73   26 11 24.1 100.66   -6 Mostly Cloudy
06:00 -2.6 -6.2 76   23 13 24.1 100.73   -7 Mainly Clear
07:00 -3.4 -5.6 85   20 13 24.1 100.81   -8 Mostly Cloudy
08:00 -3.7 -5.5 87   20 15 24.1 100.88   -9 Mostly Cloudy
09:00 -1.2 -4.1 81   19 15 24.1 100.95   -6 Mostly Cloudy
10:00 0.8 -3.3 74   21 19 24.1 100.97     Mostly Cloudy
11:00 1.8 -3.7 67   21 20 24.1 100.98     Mainly Clear
12:00 4.9 -3.8 53   22 22 24.1 100.93     Mainly Clear
13:00 5.8 -2.4 56   23 26 24.1 100.92     Mainly Clear
14:00 6.1 -4.3 47   24 17 24.1 100.91     Mostly Cloudy
15:00 5.3 -5.3 46   21 24 24.1 100.91     Mostly Cloudy
16:00 4.4 -4.3 53   21 17 24.1 100.93     Mostly Cloudy
17:00 2.4 -3.2 66   18 13 24.1 100.97     Mostly Cloudy
18:00 -0.2 -2.8 83   18 13 24.1 100.95   -4 Mostly Cloudy
19:00 0.9 -0.8 88   20 19 24.1 100.98     Mainly Clear
20:00 1.4 -0.1 90   19 19 24.1 100.99     Clear
21:00 1.1 -0.2 91   18 13 24.1 101.00     Mainly Clear
22:00 1.5 0.2 91   19 19 24.1 100.94     Mostly Cloudy
23:00 2.9 1.3 89   18 22 24.1 100.89     Mostly Cloudy

Notes on Data Quality.

Legend

  • E = Estimated
  • M = Missing
  • NA = Not Available*
  • [empty] = Indicates an unobserved value
Date modified: